CW1923 Weather Reports


time (UTC)temp
C
wind
direction
speed
KPH
gust
KPH
rain 1hr
cm
rain 24hr
cm
rain mn
cm
humidity
%
barometer
mb
20260507141019 16 123 3.2 8.0 0.00 0.03 0.00 58 1015.8
20260507140517 16 131 3.2 8.0 0.00 0.03 0.00 56 1015.9
20260507140013 16 121 3.2 11.3 0.00 0.03 0.00 59 1015.9
20260507135506 16 121 6.4 19.3 0.00 0.03 0.00 58 1015.9
20260507135005 16 152 6.4 19.3 0.00 0.03 0.00 57 1015.9
20260507134510 16 122 3.2 8.0 0.00 0.03 0.00 58 1015.9
20260507134005 16 119 3.2 8.0 0.00 0.03 0.00 60 1015.9
20260507133000 16 172 6.4 11.3 0.00 0.03 0.00 60 1016.0
20260507131953 16 164 3.2 8.0 0.00 0.03 0.00 61 1015.9
20260507131455 15 166 3.2 8.0 0.00 0.03 0.00 61 1015.8
20260507130450 15 143 3.2 8.0 0.00 0.03 0.00 59 1016.0
20260507125449 15 125 3.2 11.3 0.00 0.03 0.00 61 1016.0
20260507124947 15 121 3.2 6.4 0.00 0.03 0.00 60 1015.9
20260507123952 15 110 3.2 8.0 0.00 0.03 0.00 60 1015.9
20260507122935 15 157 3.2 8.0 0.00 0.03 0.00 61 1015.8
20260507121934 15 123 3.2 8.0 0.00 0.03 0.00 60 1015.8
20260507121433 15 117 3.2 8.0 0.00 0.03 0.00 61 1015.8
20260507120432 15 132 3.2 11.3 0.00 0.03 0.00 60 1015.8
20260507115932 15 132 3.2 11.3 0.00 0.03 0.00 60 1015.8
20260507115432 15 138 6.4 11.3 0.00 0.03 0.00 61 1015.9
20260507114931 15 161 3.2 11.3 0.00 0.03 0.00 60 1015.8
20260507114429 15 165 3.2 11.3 0.00 0.03 0.00 61 1015.8
20260507113930 15 165 3.2 11.3 0.00 0.03 0.00 60 1015.8
20260507113423 15 106 3.2 8.0 0.00 0.03 0.00 60 1015.9
20260507112928 15 106 3.2 8.0 0.00 0.03 0.00 58 1015.8
20260507112411 15 86 3.2 8.0 0.00 0.03 0.00 60 1015.8
20260507111905 15 74 3.2 8.0 0.00 0.03 0.00 62 1015.9
20260507111407 15 119 3.2 14.5 0.00 0.03 0.00 62 1015.9
20260507110905 15 145 6.4 14.5 0.00 0.03 0.00 63 1015.9
20260507110404 15 141 3.2 14.5 0.00 0.03 0.00 62 1015.9
20260507105905 15 25 3.2 14.5 0.00 0.03 0.00 62 1016.0
20260507105404 15 126 3.2 17.7 0.00 0.03 0.00 62 1016.0
20260507103907 16 114 3.2 11.3 0.00 0.03 0.00 60 1015.9
20260507103404 16 358 6.4 17.7 0.00 0.03 0.00 58 1015.9
20260507102905 16 162 6.4 17.7 0.00 0.03 0.00 61 1015.9
20260507102404 16 341 3.2 11.3 0.00 0.03 0.00 61 1016.0
20260507101903 16 113 3.2 11.3 0.00 0.03 0.00 61 1016.0
20260507101403 17 125 3.2 11.3 0.00 0.03 0.00 64 1016.0
20260507100906 16 109 3.2 11.3 0.00 0.03 0.00 61 1016.1
20260507100402 16 111 3.2 11.3 0.00 0.03 0.00 64 1015.9
20260507095906 16 235 3.2 8.0 0.00 0.03 0.00 65 1016.0
20260507095405 16 148 3.2 14.5 0.00 0.03 0.00 65 1015.9
20260507094905 15 106 3.2 14.5 0.00 0.03 0.00 64 1015.8
20260507094403 15 111 3.2 17.7 0.00 0.03 0.00 67 1015.9
20260507093849 15 108 6.4 17.7 0.00 0.03 0.00 67 1015.9
20260507093350 15 140 3.2 14.5 0.00 0.03 0.00 67 1015.9
20260507092843 15 191 3.2 6.4 0.00 0.03 0.00 67 1015.9
20260507092341 15 191 3.2 11.3 0.00 0.03 0.00 66 1015.9
20260507091841 15 161 3.2 11.3 0.00 0.03 0.00 67 1015.9
20260507090838 15 10 3.2 11.3 0.00 0.03 0.00 68 1015.9
20260507090338 15 20 3.2 11.3 0.00 0.03 0.00 70 1015.8
20260507085835 14 25 6.4 11.3 0.00 0.03 0.00 71 1015.9
20260507085334 14 25 3.2 8.0 0.00 0.03 0.00 71 1015.9
20260507084332 14 25 3.2 8.0 0.00 0.03 0.00 72 1015.9
20260507083829 14 106 3.2 6.4 0.00 0.03 0.00 71 1015.8
20260507082832 13 112 3.2 11.3 0.00 0.03 0.00 72 1015.9
20260507082327 13 114 3.2 17.7 0.00 0.03 0.00 72 1015.8
20260507081829 13 119 3.2 17.7 0.00 0.03 0.00 74 1015.8
20260507080323 12 91 0.0 0.0 0.00 0.03 0.00 79 1015.8
20260507074804 11 85 0.0 0.0 0.00 0.03 0.00 81 1015.7
20260507073306 11 86 0.0 3.2 0.00 0.03 0.00 84 1015.5
20260507072805 11 86 0.0 0.0 0.00 0.03 0.00 84 1015.5
20260507072306 11 86 0.0 3.2 0.00 0.03 0.00 85 1015.5
20260507071751 11 86 0.0 6.4 0.00 0.03 0.00 85 1015.5
20260507071252 10 86 3.2 6.4 0.00 0.03 0.00 85 1015.4
20260507070753 10 87 3.2 6.4 0.00 0.03 0.00 86 1015.4
20260507065746 10 89 3.2 6.4 0.00 0.03 0.00 87 1015.4
20260507065240 10 89 3.2 6.4 0.00 0.03 0.00 87 1015.3
20260507064737 10 89 3.2 6.4 0.00 0.03 0.00 87 1015.4
20260507063235 10 92 0.0 6.4 0.00 0.03 0.00 89 1015.2
20260507062231 10 93 0.0 0.0 0.00 0.03 0.00 89 1015.1
20260507061734 10 93 0.0 0.0 0.00 0.03 0.00 89 1015.1
20260507061230 10 93 0.0 0.0 0.00 0.03 0.00 89 1015.0
20260507060732 10 93 0.0 0.0 0.00 0.03 0.00 89 1014.9
20260507060231 10 93 0.0 0.0 0.00 0.03 0.00 89 1014.9
20260507055734 10 93 0.0 0.0 0.00 0.03 0.00 89 1014.9
20260507055232 10 93 0.0 0.0 0.00 0.03 0.00 89 1014.8
20260507054730 10 93 0.0 0.0 0.00 0.03 0.00 89 1014.7
20260507054235 10 93 0.0 0.0 0.00 0.03 0.00 89 1014.7
20260507053235 10 93 0.0 0.0 0.00 0.03 0.00 90 1014.7
20260507052230 9 93 0.0 0.0 0.00 0.03 0.00 90 1014.7
20260507051732 9 93 0.0 0.0 0.00 0.03 0.00 90 1014.7
20260507051231 9 93 0.0 0.0 0.00 0.03 0.00 89 1014.5
20260507050733 9 93 0.0 0.0 0.00 0.03 0.00 89 1014.5
20260507050230 9 93 0.0 0.0 0.00 0.03 0.00 89 1014.4
20260507045733 9 93 0.0 0.0 0.00 0.03 0.00 89 1014.4
20260507043734 9 93 0.0 0.0 0.00 0.03 0.00 89 1014.3
20260507043234 9 93 0.0 0.0 0.00 0.03 0.00 89 1014.2
20260507042730 9 93 0.0 0.0 0.00 0.03 0.00 89 1014.1
20260507042229 9 93 0.0 0.0 0.00 0.03 0.00 89 1014.1
20260507041731 9 93 0.0 0.0 0.00 0.03 0.00 89 1014.1
20260507040733 9 93 0.0 0.0 0.00 0.03 0.00 88 1014.0
20260507035733 9 93 0.0 0.0 0.00 0.03 0.00 88 1013.9
20260507035233 9 93 0.0 0.0 0.00 0.03 0.00 88 1013.9
20260507034730 9 93 0.0 0.0 0.00 0.03 0.00 88 1013.9
20260507034230 9 93 0.0 0.0 0.00 0.03 0.00 88 1013.9
20260507033233 10 93 0.0 0.0 0.00 0.03 0.00 88 1013.8
20260507032732 10 93 0.0 0.0 0.00 0.03 0.00 88 1013.8
20260507032231 10 93 0.0 0.0 0.00 0.03 0.00 88 1013.8
20260507031732 10 93 0.0 0.0 0.00 0.03 0.00 88 1013.8
20260507030706 10 93 0.0 0.0 0.00 0.05 0.00 88 1013.8
20260507030204 10 93 0.0 0.0 0.00 0.05 0.00 88 1013.7
20260507025707 10 93 0.0 0.0 0.00 0.05 0.00 88 1013.7
20260507025203 10 93 0.0 0.0 0.00 0.05 0.00 87 1013.7
20260507024706 10 93 0.0 0.0 0.00 0.05 0.00 87 1013.6
20260507023642 10 93 0.0 0.0 0.00 0.05 0.00 87 1013.7
20260507023137 10 93 0.0 0.0 0.00 0.05 0.00 87 1013.6
20260507022636 10 93 0.0 0.0 0.00 0.05 0.00 87 1013.7
20260507022136 10 93 0.0 0.0 0.00 0.05 0.00 86 1013.6
20260507021638 10 93 0.0 0.0 0.00 0.05 0.00 86 1013.6
20260507021136 10 93 0.0 0.0 0.00 0.05 0.00 86 1013.7
20260507020634 10 93 0.0 0.0 0.00 0.05 0.00 86 1013.5
20260507020133 10 93 0.0 0.0 0.00 0.05 0.00 86 1013.5
20260507015636 10 93 0.0 0.0 0.00 0.05 0.00 86 1013.4
20260507015146 10 93 0.0 0.0 0.00 0.05 0.00 86 1013.4
20260507014631 10 93 0.0 0.0 0.00 0.05 0.00 86 1013.3
20260507014130 10 93 0.0 0.0 0.00 0.05 0.00 85 1013.4
20260507013635 10 93 0.0 0.0 0.00 0.05 0.00 85 1013.3
20260507013132 10 93 0.0 0.0 0.00 0.05 0.00 85 1013.4
20260507012633 10 93 0.0 0.0 0.00 0.05 0.00 85 1013.4
20260507012132 10 93 0.0 0.0 0.00 0.05 0.00 85 1013.4
20260507010634 10 93 0.0 0.0 0.00 0.05 0.00 85 1013.4
20260507010132 10 93 0.0 0.0 0.00 0.05 0.00 85 1013.3
20260507005124 10 93 0.0 0.0 0.00 0.05 0.00 85 1013.4
20260507004616 10 93 0.0 0.0 0.00 0.05 0.00 85 1013.3
20260507004120 10 93 0.0 0.0 0.00 0.05 0.00 84 1013.4
20260507003105 10 93 0.0 0.0 0.00 0.05 0.00 84 1013.3
20260507002104 10 93 0.0 0.0 0.00 0.05 0.00 84 1013.3
20260507001104 10 93 0.0 0.0 0.00 0.05 0.00 83 1013.2
20260507000607 10 93 0.0 0.0 0.00 0.05 0.00 83 1013.2
20260507000107 10 93 0.0 0.0 0.00 0.05 0.00 83 1013.2
20260506235105 10 93 0.0 0.0 0.00 0.05 0.00 83 1013.2
20260506234600 10 93 0.0 0.0 0.00 0.05 0.00 83 1013.1
20260506234054 10 93 0.0 0.0 0.00 0.05 0.00 83 1013.1
20260506233559 10 93 0.0 0.0 0.00 0.05 0.00 82 1013.1
20260506233047 10 93 0.0 0.0 0.00 0.08 0.00 82 1013.1
20260506232048 10 93 0.0 0.0 0.00 0.08 0.00 82 1013.0
20260506231542 10 93 0.0 0.0 0.00 0.08 0.00 82 1013.0
20260506231034 10 93 0.0 0.0 0.00 0.08 0.00 82 1013.0
20260506230532 10 93 0.0 0.0 0.00 0.08 0.00 82 1012.9
20260506225525 10 93 0.0 0.0 0.00 0.08 0.00 82 1012.8
20260506225016 10 93 0.0 0.0 0.00 0.08 0.00 82 1012.8
20260506224510 10 93 0.0 0.0 0.00 0.08 0.00 82 1012.7
20260506224010 10 93 0.0 0.0 0.00 0.08 0.00 81 1012.6
20260506223504 10 93 0.0 0.0 0.00 0.08 0.00 81 1012.6
20260506222958 10 93 0.0 0.0 0.00 0.08 0.00 81 1012.5
20260506222445 10 93 0.0 0.0 0.00 0.08 0.00 81 1012.5
20260506221942 10 93 0.0 0.0 0.00 0.08 0.00 81 1012.5
20260506221438 10 93 0.0 0.0 0.00 0.10 0.00 81 1012.4
20260506220933 10 93 0.0 0.0 0.00 0.10 0.00 81 1012.4
20260506220431 10 93 0.0 0.0 0.00 0.10 0.00 81 1012.5
20260506215934 10 93 0.0 0.0 0.00 0.10 0.10 81 1012.4
20260506215434 10 93 0.0 0.0 0.00 0.13 0.10 81 1012.4
20260506214431 10 93 0.0 0.0 0.00 0.13 0.10 81 1012.4
20260506213934 10 93 0.0 0.0 0.00 0.13 0.10 81 1012.3
20260506213432 10 93 0.0 0.0 0.00 0.15 0.10 80 1012.4
20260506212932 10 93 0.0 0.0 0.00 0.15 0.10 80 1012.3
20260506212436 10 93 0.0 0.0 0.00 0.15 0.10 80 1012.4
20260506211424 11 93 0.0 0.0 0.00 0.15 0.10 80 1012.3
20260506210920 11 93 0.0 0.0 0.00 0.15 0.10 80 1012.2
20260506210418 10 93 0.0 0.0 0.00 0.15 0.10 80 1012.2
20260506205911 11 93 0.0 0.0 0.00 0.15 0.10 80 1012.2
20260506205410 11 93 0.0 0.0 0.00 0.15 0.10 79 1012.2
20260506204905 11 93 0.0 0.0 0.00 0.15 0.10 79 1012.2
20260506204404 11 93 0.0 0.0 0.00 0.15 0.10 79 1012.1
20260506203905 11 93 0.0 0.0 0.00 0.15 0.10 79 1012.1
20260506202905 11 93 3.2 11.3 0.00 0.18 0.10 80 1012.1
20260506202406 11 93 3.2 11.3 0.00 0.18 0.10 80 1012.0
20260506201404 11 145 0.0 6.4 0.00 0.18 0.10 81 1011.8
20260506195906 11 146 3.2 8.0 0.00 0.18 0.10 81 1011.7
20260506195404 11 146 3.2 8.0 0.00 0.18 0.10 81 1011.7
20260506194907 11 147 0.0 8.0 0.00 0.18 0.10 81 1011.6
20260506194404 11 147 0.0 8.0 0.00 0.18 0.10 81 1011.7
20260506193907 11 147 0.0 8.0 0.00 0.18 0.10 81 1011.8
20260506192838 11 148 3.2 17.7 0.03 0.18 0.10 80 1011.6
20260506192335 11 147 3.2 17.7 0.03 0.18 0.10 80 1011.5
20260506191333 11 25 0.0 6.4 0.03 0.18 0.10 79 1011.5
20260506190330 11 118 3.2 11.3 0.03 0.18 0.10 78 1011.3
20260506185832 11 118 3.2 17.7 0.03 0.18 0.10 78 1011.2
20260506185333 11 84 3.2 17.7 0.03 0.18 0.10 78 1011.3
20260506184824 11 81 3.2 6.4 0.03 0.18 0.10 77 1011.1
20260506184324 11 81 3.2 8.0 0.03 0.18 0.10 77 1011.1
20260506183822 11 81 3.2 8.0 0.03 0.18 0.10 75 1011.1
20260506183323 11 6 3.2 8.0 0.00 0.15 0.08 74 1011.1
20260506182816 12 25 3.2 8.0 0.00 0.15 0.08 74 1011.0
20260506182312 12 25 6.4 11.3 0.00 0.15 0.08 73 1011.0
20260506181812 12 25 6.4 11.3 0.00 0.15 0.08 72 1010.9
20260506181309 12 25 6.4 14.5 0.00 0.15 0.08 72 1010.8
20260506180309 12 323 3.2 22.5 0.00 0.15 0.08 70 1010.6
20260506175804 12 25 3.2 22.5 0.00 0.15 0.08 70 1010.6
20260506174805 12 79 6.4 17.7 0.00 0.15 0.08 69 1010.5
20260506174304 12 105 3.2 11.3 0.00 0.15 0.08 69 1010.4
20260506173804 13 5 3.2 8.0 0.00 0.15 0.08 68 1010.2
20260506173304 13 1 6.4 8.0 0.00 0.15 0.08 67 1010.2
20260506172804 13 11 6.4 14.5 0.00 0.15 0.08 66 1010.2
20260506172306 13 19 6.4 14.5 0.00 0.15 0.08 66 1010.2
20260506171804 13 345 6.4 14.5 0.00 0.15 0.08 65 1010.1
20260506170802 14 84 3.2 11.3 0.00 0.15 0.08 64 1010.0
20260506165806 14 124 3.2 11.3 0.00 0.15 0.08 63 1009.8
20260506165305 14 112 6.4 19.3 0.00 0.15 0.08 64 1009.8
20260506164804 14 47 6.4 19.3 0.00 0.15 0.08 65 1009.7
20260506164305 13 12 6.4 11.3 0.00 0.15 0.08 65 1009.7
20260506163305 14 12 3.2 14.5 0.00 0.15 0.08 65 1009.5
20260506162804 14 12 3.2 11.3 0.00 0.15 0.08 65 1009.4
20260506161805 14 349 3.2 17.7 0.00 0.15 0.08 67 1009.4
20260506161303 14 72 3.2 6.4 0.00 0.15 0.08 68 1009.4
20260506160803 14 72 3.2 8.0 0.00 0.15 0.08 69 1009.4
20260506160304 14 54 3.2 8.0 0.00 0.15 0.08 68 1009.5
20260506155805 14 56 3.2 8.0 0.00 0.15 0.08 68 1009.4
20260506155306 14 56 3.2 8.0 0.00 0.15 0.08 68 1009.3
20260506154806 14 55 3.2 8.0 0.00 0.15 0.08 67 1009.4
20260506154306 14 339 3.2 8.0 0.00 0.15 0.08 67 1009.4
20260506153303 15 16 3.2 11.3 0.00 0.15 0.08 67 1009.3
20260506152803 15 95 3.2 17.7 0.00 0.15 0.08 67 1009.3
20260506152306 15 16 3.2 17.7 0.00 0.15 0.08 66 1009.2
20260506151304 15 105 3.2 11.3 0.00 0.18 0.08 65 1009.2
20260506150305 15 61 0.0 6.4 0.00 0.18 0.08 64 1009.2
20260506145804 15 61 3.2 8.0 0.00 0.18 0.08 65 1009.2
20260506145305 15 61 3.2 8.0 0.00 0.18 0.08 65 1009.2
20260506144803 15 74 3.2 6.4 0.00 0.18 0.08 66 1009.1
20260506144303 15 60 3.2 8.0 0.00 0.18 0.08 65 1009.1
20260506143803 15 61 3.2 8.0 0.00 0.18 0.08 64 1009.2
20260506143302 15 59 3.2 8.0 0.00 0.18 0.08 64 1009.1
20260506142747 15 62 6.4 8.0 0.00 0.18 0.08 63 1009.1
20260506141747 15 77 3.2 11.3 0.00 0.18 0.08 63 1009.1